Αρχική σελίδα
METAR-TAF:

METAR-TAF

Αεροδρόμια :

Gage, Οκλαχόμα, Ηνωμένες Πολιτείες Αμερικής

γεωγραφικό πλάτος: 36-17-48N, γεωγραφικό μήκος: 099-46-08W, υψόμετρο: 677 μ

Παρών καιρός

Η αναφορά έγινε 31 λεπτά πριν, στις 07:53 UTC
Άνεμος 15 kt από Ν
Θερμοκρασία 8°C
Υγρασία 49%
Πίεση 1021 hPa
Ορατότητα: 16.1 χλμ
Καθαρός ουρανός

METAR: KGAG 190753Z AUTO 18015KT 10SM CLR 08/M02 A3014 RMK AO2 SLP196 T00831022

Χρόνος: 03:24 (08:24 UTC)


TAF: λείπει

Μετεωρολογικές αναφορές και προγνώσεις για περισσότερα από 4000 αεροδρόμια (δελτία METAR και TAF).

Οι διαθέσιμοι σταθμοί απεικονίζονται στο χάρτη με κίτρινες και κόκκινες κουκκίδες.

Μετακινήστε το ποντίκι πάνω από τις κουκκίδες για να δείτε το όνομα του σταθμού.

Στη συνέχεια, κάντε κλικ για να δείτε τις μετεωρολογικές αναφορές και τις προγνώσεις καιρού.

Για να αλλάξετε το χάρτη: κάντε κλικ στα πράσινα κουμπιά με τον μαύρο σταυρό για να ζουμάρετε, στο πράσινο κουμπί με την παύλα για να αφαιρέσετε το ζουμ ή στα πράσινα βέλη για να αντιπαραβάλλετε χάρτες.


METAR-TAF: